WC4PEM-15 Weather Reports


time (UTC)temp
C
wind
direction
speed
KPH
gust
KPH
rain 1hr
cm
rain 24hr
cm
rain mn
cm
humidity
%
barometer
mb
20260510134440 25 203 9.7 14.5 0.00 0.00 0.00 85 1016.4
20260510134008 25 230 6.4 11.3 0.00 0.00 0.00 87 1016.4
20260510133940 25 208 8.0 12.9 0.00 0.00 0.00 86 1016.5
20260510133440 25 230 6.4 11.3 0.00 0.00 0.00 87 1016.4
20260510133255 25 219 6.4 9.7 0.00 0.00 0.00 87 1016.3
20260510132940 25 219 6.4 9.7 0.00 0.00 0.00 87 1016.3
20260510132658 25 225 6.4 8.0 0.00 0.00 0.00 88 1016.5
20260510132440 25 225 6.4 8.0 0.00 0.00 0.00 88 1016.5
20260510132054 25 211 6.4 9.7 0.00 0.00 0.00 88 1016.2
20260510131940 25 211 6.4 9.7 0.00 0.00 0.00 88 1016.2
20260510131638 24 213 4.8 6.4 0.00 0.00 0.00 88 1016.2
20260510131440 24 213 4.8 6.4 0.00 0.00 0.00 88 1016.2
20260510131121 24 215 4.8 6.4 0.00 0.00 0.00 88 1016.3
20260510130940 24 215 4.8 6.4 0.00 0.00 0.00 88 1016.3
20260510130652 24 225 4.8 8.0 0.00 0.00 0.00 88 1016.3
20260510130440 24 225 4.8 8.0 0.00 0.00 0.00 88 1016.3
20260510130031 24 225 3.2 8.0 0.00 0.00 0.00 89 1016.2
20260510125940 24 225 3.2 8.0 0.00 0.00 0.00 89 1016.2
20260510125720 24 187 3.2 8.0 0.00 0.00 0.00 90 1016.3
20260510125440 24 187 3.2 8.0 0.00 0.00 0.00 90 1016.3
20260510125049 23 205 3.2 8.0 0.00 0.00 0.00 91 1016.4
20260510124940 23 205 3.2 8.0 0.00 0.00 0.00 91 1016.4